KF0JJO Weather Reports


Display with metric or nautical units.
time (UTC)temp
F
wind
direction
speed
MPH
gust
MPH
rain 1hr
in
rain 24hr
in
rain mn
in
humidity
%
barometer
mb
20260906165123 77 34 0.0 2.0 0.00 0.00 0.00 72 1051.0
20260906164621 77 34 0.0 1.0 0.00 0.00 0.00 72 1051.0
20260906164117 77 27 0.0 1.0 0.00 0.00 0.00 72 1051.2
20260906163613 77 39 1.0 1.0 0.00 0.00 0.00 72 1051.1
20260906163108 77 37 0.0 1.0 0.00 0.00 0.00 72 1051.1
20260906162606 77 33 0.0 1.0 0.00 0.00 0.00 74 1051.2
20260906162100 76 36 0.0 3.0 0.00 0.00 0.00 75 1051.4
20260906161555 76 31 0.0 1.0 0.00 0.00 0.00 75 1051.2
20260906161054 76 34 0.0 1.0 0.00 0.00 0.00 75 1051.3
20260906160553 76 33 1.0 2.0 0.00 0.00 0.00 75 1051.2
20260906160052 75 21 0.0 6.0 0.00 0.00 0.00 76 1051.1
20260906155550 75 32 0.0 2.0 0.00 0.00 0.00 77 1051.2
20260906155046 75 18 1.0 3.0 0.00 0.00 0.00 77 1051.3
20260906154541 74 29 0.0 1.0 0.00 0.00 0.00 78 1051.4
20260906154040 74 20 3.0 3.0 0.00 0.00 0.00 79 1051.2
20260906153538 74 34 0.0 3.0 0.00 0.00 0.00 79 1051.5
20260906153034 74 34 0.0 1.0 0.00 0.00 0.00 80 1051.3
20260906152533 73 39 1.0 2.0 0.00 0.00 0.00 80 1051.5
20260906152033 73 35 0.0 4.0 0.00 0.00 0.00 81 1051.6
20260906151528 73 29 0.0 3.0 0.00 0.00 0.00 80 1051.5
20260906151024 73 6 2.0 2.0 0.00 0.00 0.00 80 1051.5
20260906150519 73 27 1.0 2.0 0.00 0.00 0.00 80 1051.5
20260906150014 73 38 0.0 2.0 0.00 0.00 0.00 80 1051.4
20260906145513 74 32 0.0 3.0 0.00 0.00 0.00 80 1051.2
20260906145009 73 31 0.0 3.0 0.00 0.00 0.00 81 1051.4
20260906144502 73 35 0.0 2.0 0.00 0.00 0.00 81 1051.4
20260906143958 73 46 1.0 3.0 0.00 0.00 0.00 81 1051.2
20260906143453 73 33 0.0 2.0 0.00 0.00 0.00 81 1051.2
20260906142949 73 34 0.0 3.0 0.00 0.00 0.00 81 1051.3
20260906142448 73 33 0.0 1.0 0.00 0.00 0.00 82 1051.1
20260906141944 73 36 0.0 1.0 0.00 0.00 0.00 82 1051.1
20260906141443 73 24 1.0 2.0 0.00 0.00 0.00 82 1051.4
20260906140938 73 28 0.0 2.0 0.00 0.00 0.00 83 1051.4
20260906140433 73 31 0.0 1.0 0.00 0.00 0.00 83 1051.2
20260906135931 73 37 0.0 2.0 0.00 0.00 0.00 83 1051.1
20260906135430 72 27 1.0 1.0 0.00 0.00 0.00 84 1051.1
20260906134926 72 30 0.0 1.0 0.00 0.00 0.00 85 1051.3
20260906134421 72 35 0.0 3.0 0.00 0.00 0.00 85 1051.2
20260906133915 72 35 0.0 1.0 0.00 0.00 0.00 85 1051.2
20260906133411 72 62 1.0 2.0 0.00 0.00 0.00 86 1051.0
20260906132907 71 27 0.0 1.0 0.00 0.00 0.00 87 1050.9
20260906132402 71 30 0.0 1.0 0.00 0.00 0.00 88 1050.9
20260906131857 71 28 1.0 1.0 0.00 0.00 0.00 89 1050.9
20260906131353 70 33 1.0 1.0 0.00 0.00 0.00 89 1050.7
20260906130849 70 27 1.0 2.0 0.00 0.00 0.00 90 1050.7
20260906130348 70 32 0.0 1.0 0.00 0.00 0.00 90 1050.8
20260906125847 70 34 0.0 2.0 0.00 0.00 0.00 91 1050.8
20260906125344 69 32 1.0 1.0 0.00 0.00 0.00 92 1050.6
20260906124839 69 32 0.0 1.0 0.00 0.00 0.00 93 1050.6
20260906124335 69 31 0.0 2.0 0.00 0.00 0.00 94 1050.8
20260906123834 68 29 0.0 0.0 0.00 0.00 0.00 94 1050.8
20260906123329 68 29 0.0 0.0 0.00 0.00 0.00 94 1050.7
20260906122829 68 29 0.0 1.0 0.00 0.00 0.00 95 1050.7
20260906122324 68 31 0.0 0.0 0.00 0.00 0.00 95 1050.9
20260906121821 68 29 0.0 0.0 0.00 0.00 0.00 95 1050.8
20260906121317 68 23 1.0 1.0 0.00 0.00 0.00 95 1050.6
20260906120813 68 29 0.0 0.0 0.00 0.00 0.00 95 1050.3
20260906120308 68 32 0.0 0.0 0.00 0.00 0.00 94 1050.6
20260906115804 68 32 0.0 0.0 0.00 0.00 0.00 94 1050.4
20260906115259 68 32 0.0 0.0 0.00 0.00 0.00 94 1050.4
20260906114759 68 32 0.0 0.0 0.00 0.00 0.00 94 1050.4
20260906114254 68 32 0.0 0.0 0.00 0.00 0.00 94 1050.4
20260906113749 68 32 0.0 0.0 0.00 0.00 0.00 94 1050.3
20260906113249 68 32 0.0 0.0 0.00 0.00 0.00 94 1050.3
20260906112748 68 32 0.0 0.0 0.00 0.00 0.00 94 1050.2
20260906112245 68 32 0.0 0.0 0.00 0.00 0.00 94 1050.1
20260906111745 68 32 0.0 0.0 0.00 0.00 0.00 93 1050.2
20260906111244 68 32 0.0 0.0 0.00 0.00 0.00 93 1050.4
20260906110739 68 32 0.0 0.0 0.00 0.00 0.00 93 1050.1
20260906110236 69 32 0.0 0.0 0.00 0.00 0.00 93 1050.0
20260906105734 69 32 0.0 0.0 0.00 0.00 0.00 93 1050.1
20260906105230 69 32 0.0 0.0 0.00 0.00 0.00 93 1050.1
20260906104725 69 32 0.0 0.0 0.00 0.00 0.00 92 1050.0
20260906104224 69 32 0.0 0.0 0.00 0.00 0.00 92 1050.2
20260906103721 69 32 0.0 0.0 0.00 0.00 0.00 92 1050.1
20260906103216 69 32 0.0 0.0 0.00 0.00 0.00 91 1050.1
20260906102712 69 32 0.0 0.0 0.00 0.00 0.00 91 1050.0
20260906102212 70 32 0.0 0.0 0.00 0.00 0.00 91 1050.2
20260906101712 70 32 0.0 0.0 0.00 0.00 0.00 91 1050.0
20260906101207 70 32 0.0 0.0 0.00 0.00 0.00 90 1050.1
20260906100657 70 32 0.0 0.0 0.00 0.00 0.00 90 1049.8
20260906100156 70 34 0.0 0.0 0.00 0.00 0.00 90 1049.9
20260906095651 70 29 0.0 0.0 0.00 0.00 0.00 89 1049.8
20260906095146 71 29 0.0 1.0 0.00 0.00 0.00 89 1049.5
20260906094645 71 27 1.0 1.0 0.00 0.00 0.00 89 1049.3
20260906094141 71 29 0.0 0.0 0.00 0.00 0.00 89 1049.2
20260906093637 71 25 1.0 1.0 0.00 0.00 0.00 88 1049.2
20260906093132 71 34 0.0 2.0 0.00 0.00 0.00 88 1049.0
20260906092626 71 34 0.0 0.0 0.00 0.00 0.00 88 1049.1
20260906092121 71 36 0.0 0.0 0.00 0.00 0.00 88 1049.0
20260906091617 71 32 0.0 0.0 0.00 0.00 0.00 88 1049.1
20260906091114 71 30 0.0 0.0 0.00 0.00 0.00 88 1049.0
20260906090609 71 35 0.0 0.0 0.00 0.00 0.00 88 1049.1
20260906090108 71 30 0.0 0.0 0.00 0.00 0.00 88 1049.1
20260906085608 71 29 0.0 1.0 0.00 0.00 0.00 88 1049.1
20260906085102 71 30 0.0 0.0 0.00 0.00 0.00 87 1049.2
20260906084557 71 34 0.0 4.0 0.00 0.00 0.00 87 1049.2
20260906084055 71 34 0.0 2.0 0.00 0.00 0.00 87 1049.1
20260906083551 71 30 0.0 1.0 0.00 0.00 0.00 87 1049.0
20260906083051 71 29 0.0 0.0 0.00 0.00 0.00 87 1048.9
20260906082546 71 33 0.0 2.0 0.00 0.00 0.00 87 1049.0
20260906082042 71 33 0.0 0.0 0.00 0.00 0.00 86 1048.8
20260906081538 71 32 0.0 1.0 0.00 0.00 0.00 87 1049.1
20260906081033 71 30 0.0 0.0 0.00 0.00 0.00 87 1049.0
20260906080529 71 28 1.0 1.0 0.00 0.00 0.00 87 1049.1
20260906080026 71 29 0.0 0.0 0.00 0.00 0.00 88 1048.9
20260906075525 71 32 0.0 0.0 0.00 0.00 0.00 88 1049.1
20260906075020 71 32 0.0 0.0 0.00 0.00 0.00 88 1048.8
20260906074515 71 32 0.0 0.0 0.00 0.00 0.00 88 1048.9
20260906074013 71 28 0.0 0.0 0.00 0.00 0.00 88 1049.1
20260906073508 71 28 0.0 0.0 0.00 0.00 0.00 88 1049.1
20260906073004 71 28 0.0 0.0 0.00 0.00 0.00 88 1049.3
20260906072459 71 28 0.0 0.0 0.00 0.00 0.00 88 1049.3
20260906071955 71 28 0.0 0.0 0.00 0.00 0.00 88 1049.1
20260906071451 71 28 0.0 0.0 0.00 0.00 0.00 88 1049.4
20260906070946 71 28 0.0 0.0 0.00 0.00 0.00 88 1049.4
20260906070442 71 28 0.0 0.0 0.00 0.00 0.00 88 1049.3
20260906065938 72 28 0.0 0.0 0.00 0.00 0.00 87 1049.5
20260906065432 72 28 0.0 0.0 0.00 0.00 0.00 87 1049.7
20260906064928 72 28 0.0 0.0 0.00 0.00 0.00 86 1049.5
20260906064424 72 28 0.0 0.0 0.00 0.00 0.00 86 1049.2
20260906063924 72 28 0.0 0.0 0.00 0.00 0.00 85 1049.3
20260906063419 73 28 0.0 0.0 0.00 0.00 0.00 85 1049.5
20260906062914 73 29 0.0 0.0 0.00 0.00 0.00 84 1049.3
20260906062414 73 29 0.0 0.0 0.00 0.00 0.00 84 1049.3
20260906061910 73 29 0.0 0.0 0.00 0.00 0.00 84 1049.4
20260906061406 73 29 0.0 0.0 0.00 0.00 0.00 84 1049.5
20260906060900 73 29 0.0 0.0 0.00 0.00 0.00 83 1049.4
20260906060357 73 29 0.0 0.0 0.00 0.00 0.00 84 1049.5
20260906055853 73 29 0.0 0.0 0.00 0.00 0.00 84 1049.4
20260906055349 73 29 0.0 0.0 0.00 0.00 0.00 84 1049.4
20260906054843 73 29 0.0 0.0 0.00 0.00 0.00 85 1049.4
20260906054338 72 29 0.0 1.0 0.00 0.00 0.00 85 1049.3
20260906053835 72 29 0.0 1.0 0.00 0.00 0.00 86 1049.4
20260906053331 72 31 0.0 0.0 0.00 0.00 0.00 86 1049.4
20260906052826 72 31 0.0 0.0 0.00 0.00 0.00 86 1049.4
20260906052322 72 31 0.0 0.0 0.00 0.00 0.00 85 1049.4
20260906051819 72 31 0.0 0.0 0.00 0.00 0.00 85 1049.3
20260906051318 72 31 0.0 0.0 0.00 0.00 0.00 85 1049.5
20260906050814 72 31 0.0 0.0 0.00 0.00 0.00 85 1049.7
20260906050309 72 31 0.0 0.0 0.00 0.00 0.00 85 1049.7
20260906045808 72 31 0.0 0.0 0.00 0.00 0.00 85 1049.7
20260906045305 72 31 0.0 0.0 0.00 0.00 0.00 85 1049.5
20260906044759 72 31 0.0 0.0 0.00 0.00 0.00 85 1049.5
20260906044253 72 31 0.0 0.0 0.00 0.00 0.00 85 1049.8
20260906043749 72 31 0.0 0.0 0.00 0.00 0.00 85 1049.9
20260906043245 72 31 0.0 0.0 0.00 0.00 0.00 85 1049.7
20260906042745 72 31 0.0 0.0 0.00 0.00 0.00 85 1049.8
20260906042243 72 31 0.0 0.0 0.00 0.00 0.00 85 1050.0
20260906041739 72 31 0.0 0.0 0.00 0.00 0.00 84 1049.5
20260906041235 72 31 0.0 0.0 0.00 0.00 0.00 84 1049.9
20260906040730 72 31 0.0 0.0 0.00 0.00 0.00 83 1049.9
20260906040225 73 31 0.0 0.0 0.00 0.00 0.00 83 1049.9
20260906035721 73 31 0.0 0.0 0.00 0.00 0.00 83 1050.0
20260906035216 73 31 0.0 0.0 0.00 0.00 0.00 83 1050.0
20260906034716 73 31 0.0 0.0 0.00 0.00 0.00 83 1050.0
20260906034211 73 31 0.0 0.0 0.00 0.00 0.00 82 1049.9
20260906033707 73 31 0.0 0.0 0.00 0.00 0.00 82 1049.9
20260906033201 73 31 0.0 0.0 0.00 0.00 0.00 81 1049.9
20260906032658 73 31 0.0 0.0 0.00 0.00 0.00 80 1049.8
20260906032158 74 31 0.0 0.0 0.00 0.00 0.00 80 1049.7
20260906031653 74 31 0.0 0.0 0.00 0.00 0.00 79 1049.8
20260906031148 75 31 0.0 0.0 0.00 0.00 0.00 78 1049.9
20260906030648 75 31 0.0 0.0 0.00 0.00 0.00 77 1050.0
20260906030143 75 31 0.0 0.0 0.00 0.00 0.00 77 1049.9
20260906025642 75 31 0.0 0.0 0.00 0.00 0.00 76 1050.0
20260906025142 75 31 0.0 0.0 0.00 0.00 0.00 76 1049.9
20260906024637 75 31 0.0 0.0 0.00 0.00 0.00 75 1050.0
20260906024136 75 31 0.0 0.0 0.00 0.00 0.00 75 1050.0
20260906023632 75 31 0.0 0.0 0.00 0.00 0.00 75 1049.8
20260906023132 76 31 0.0 0.0 0.00 0.00 0.00 74 1049.5
20260906022627 76 31 0.0 0.0 0.00 0.00 0.00 74 1049.7
20260906022123 76 31 0.0 0.0 0.00 0.00 0.00 74 1049.4
20260906021619 76 33 0.0 0.0 0.00 0.00 0.00 73 1049.2
20260906021117 76 32 0.0 0.0 0.00 0.00 0.00 73 1049.2
20260906020617 76 32 0.0 0.0 0.00 0.00 0.00 73 1049.1
20260906020112 76 31 0.0 0.0 0.00 0.00 0.00 73 1049.1
20260906015606 76 30 0.0 0.0 0.00 0.00 0.00 72 1048.9
20260906015105 77 30 0.0 1.0 0.00 0.00 0.00 72 1048.7
20260906014600 77 25 2.0 3.0 0.00 0.00 0.00 72 1048.6
20260906014056 77 29 0.0 2.0 0.00 0.00 0.00 72 1048.4
20260906013551 77 32 0.0 1.0 0.00 0.00 0.00 72 1048.1
20260906013046 77 28 0.0 1.0 0.00 0.00 0.00 72 1048.2
20260906012541 78 32 2.0 2.0 0.00 0.00 0.00 71 1048.2
20260906012041 78 34 0.0 1.0 0.00 0.00 0.00 72 1047.7
20260906011537 78 23 1.0 2.0 0.00 0.00 0.00 72 1047.7
20260906011037 79 42 1.0 1.0 0.00 0.00 0.00 71 1047.8
20260906010532 79 36 1.0 2.0 0.00 0.00 0.00 71 1047.6
20260906010029 79 36 1.0 1.0 0.00 0.00 0.00 70 1047.6
20260906005527 79 35 0.0 0.0 0.00 0.00 0.00 68 1047.7
20260906005027 79 30 0.0 0.0 0.00 0.00 0.00 67 1047.5
20260906004526 80 37 0.0 0.0 0.00 0.00 0.00 66 1047.3
20260906004021 80 34 0.0 1.0 0.00 0.00 0.00 66 1047.1
20260906003516 80 31 0.0 0.0 0.00 0.00 0.00 65 1047.1
20260906003013 81 29 0.0 0.0 0.00 0.00 0.00 64 1047.2
20260906002507 81 29 1.0 1.0 0.00 0.00 0.00 63 1047.0
20260906002002 81 36 0.0 0.0 0.00 0.00 0.00 62 1046.7
20260906001458 82 27 0.0 1.0 0.00 0.00 0.00 61 1047.1
20260906000952 82 34 0.0 1.0 0.00 0.00 0.00 61 1047.3
20260906000448 82 38 0.0 1.0 0.00 0.00 0.00 60 1047.2
20260905235947 82 34 0.0 0.0 0.00 0.00 0.00 59 1047.2
20260905235442 83 31 0.0 1.0 0.00 0.00 0.00 59 1047.2
20260905234937 83 33 2.0 2.0 0.00 0.00 0.00 58 1047.1
20260905234433 83 36 0.0 0.0 0.00 0.00 0.00 58 1046.9
20260905233932 83 33 1.0 1.0 0.00 0.00 0.00 57 1046.9
20260905233428 84 35 0.0 3.0 0.00 0.00 0.00 57 1046.8
20260905232927 84 32 0.0 1.0 0.00 0.00 0.00 55 1046.7
20260905232423 84 38 0.0 2.0 0.00 0.00 0.00 56 1046.8
20260905231918 84 36 0.0 1.0 0.00 0.00 0.00 56 1046.8
20260905231414 84 35 0.0 1.0 0.00 0.00 0.00 56 1046.6
20260905230911 85 42 3.0 4.0 0.00 0.00 0.00 55 1046.7
20260905230408 85 37 0.0 1.0 0.00 0.00 0.00 55 1046.7
20260905225907 85 28 1.0 2.0 0.00 0.00 0.00 55 1046.7
20260905225402 86 51 2.0 3.0 0.00 0.00 0.00 54 1046.5
20260905224857 86 37 1.0 2.0 0.00 0.00 0.00 54 1046.5
20260905224354 87 38 0.0 3.0 0.00 0.00 0.00 53 1046.6
20260905223848 88 34 0.0 2.0 0.00 0.00 0.00 53 1046.4
20260905223346 88 35 0.0 2.0 0.00 0.00 0.00 53 1046.6
20260905222845 88 39 0.0 1.0 0.00 0.00 0.00 52 1046.6
20260905222344 88 39 0.0 1.0 0.00 0.00 0.00 53 1046.6
20260905221841 89 40 1.0 1.0 0.00 0.00 0.00 52 1046.7
20260905221337 89 37 1.0 1.0 0.00 0.00 0.00 51 1046.8
20260905220833 89 34 1.0 2.0 0.00 0.00 0.00 51 1046.9
20260905220329 90 37 0.0 1.0 0.00 0.00 0.00 50 1046.9
20260905215828 89 40 1.0 1.0 0.00 0.00 0.00 51 1046.6
20260905215324 89 46 1.0 1.0 0.00 0.00 0.00 50 1046.5
20260905214820 89 29 1.0 4.0 0.00 0.00 0.00 51 1046.6
20260905214315 89 35 0.0 2.0 0.00 0.00 0.00 50 1046.9
20260905213810 89 39 1.0 2.0 0.00 0.00 0.00 50 1046.8
20260905213306 89 30 0.0 1.0 0.00 0.00 0.00 50 1046.7
20260905212801 88 33 0.0 2.0 0.00 0.00 0.00 52 1046.7
20260905212300 89 36 1.0 3.0 0.00 0.00 0.00 51 1046.8
20260905211755 89 39 0.0 2.0 0.00 0.00 0.00 50 1046.6
20260905211250 89 30 2.0 3.0 0.00 0.00 0.00 51 1046.9
20260905210747 89 39 1.0 1.0 0.00 0.00 0.00 52 1046.6
20260905210246 89 22 1.0 3.0 0.00 0.00 0.00 52 1047.0
20260905205745 89 35 1.0 2.0 0.00 0.00 0.00 52 1047.2
20260905205240 88 33 1.0 3.0 0.00 0.00 0.00 53 1047.3
20260905204739 88 33 0.0 2.0 0.00 0.00 0.00 54 1047.7
20260905204235 88 30 0.0 1.0 0.00 0.00 0.00 53 1047.7
20260905203735 87 38 1.0 2.0 0.00 0.00 0.00 55 1047.7
20260905203230 87 34 0.0 2.0 0.00 0.00 0.00 55 1047.9
20260905202726 88 36 1.0 2.0 0.00 0.00 0.00 54 1047.7
20260905202221 87 29 0.0 1.0 0.00 0.00 0.00 56 1047.9
20260905201717 86 32 0.0 1.0 0.00 0.00 0.00 57 1048.1
20260905201217 86 27 1.0 1.0 0.00 0.00 0.00 57 1048.2
20260905200712 85 28 0.0 1.0 0.00 0.00 0.00 58 1048.4
20260905200208 86 32 0.0 1.0 0.00 0.00 0.00 57 1048.4
20260905195705 86 27 0.0 1.0 0.00 0.00 0.00 58 1048.4
20260905195201 86 31 0.0 1.0 0.00 0.00 0.00 57 1048.6
20260905194656 86 34 0.0 1.0 0.00 0.00 0.00 56 1048.6
20260905194150 86 33 0.0 1.0 0.00 0.00 0.00 57 1048.8
20260905193649 87 54 0.0 1.0 0.00 0.00 0.00 56 1048.6
20260905193145 86 31 0.0 1.0 0.00 0.00 0.00 58 1048.8
20260905192640 86 35 0.0 2.0 0.00 0.00 0.00 58 1048.8
20260905192137 86 15 1.0 2.0 0.00 0.00 0.00 57 1048.8
20260905191636 86 33 1.0 1.0 0.00 0.00 0.00 57 1048.8
20260905191134 86 35 1.0 2.0 0.00 0.00 0.00 57 1048.8
20260905190633 85 46 0.0 1.0 0.00 0.00 0.00 59 1048.9
20260905190132 84 31 0.0 2.0 0.00 0.00 0.00 61 1049.0
20260905185631 83 36 1.0 2.0 0.00 0.00 0.00 63 1048.8
20260905185125 83 29 0.0 2.0 0.00 0.00 0.00 64 1048.9
20260905184620 83 28 0.0 2.0 0.00 0.00 0.00 64 1049.1
20260905184119 82 13 2.0 2.0 0.00 0.00 0.00 64 1048.9
20260905183619 83 38 1.0 1.0 0.00 0.00 0.00 64 1049.1
20260905183114 82 7 1.0 2.0 0.00 0.00 0.00 64 1049.0
20260905182613 82 33 0.0 1.0 0.00 0.00 0.00 65 1049.0
20260905182114 82 40 1.0 1.0 0.00 0.00 0.00 65 1049.0
20260905181614 81 28 0.0 1.0 0.00 0.00 0.00 66 1049.1
20260905181113 80 52 0.0 0.0 0.00 0.00 0.00 69 1049.1
20260905180608 80 35 1.0 2.0 0.00 0.00 0.00 68 1049.2
20260905180103 80 37 0.0 2.0 0.00 0.00 0.00 71 1049.2
20260905175603 79 33 0.0 1.0 0.00 0.00 0.00 72 1049.3
20260905175058 79 29 0.0 1.0 0.00 0.00 0.00 71 1049.4
20260905174553 79 34 0.0 1.0 0.00 0.00 0.00 71 1049.8
20260905174049 79 30 0.0 1.0 0.00 0.00 0.00 71 1049.7
20260905173545 79 30 0.0 2.0 0.00 0.00 0.00 72 1049.4
20260905173040 79 42 1.0 2.0 0.00 0.00 0.00 71 1049.7
20260905172539 79 87 1.0 2.0 0.00 0.00 0.00 71 1049.7
20260905172034 78 35 1.0 2.0 0.00 0.00 0.00 73 1049.8
20260905171531 78 27 1.0 3.0 0.00 0.00 0.00 74 1049.9
20260905171027 78 34 0.0 2.0 0.00 0.00 0.00 75 1049.9
20260905170523 77 27 0.0 1.0 0.00 0.00 0.00 75 1049.7
20260905170018 77 28 0.0 2.0 0.00 0.00 0.00 76 1050.0
20260905165513 77 28 0.0 1.0 0.00 0.00 0.00 76 1049.5